When you browse on this site, cookies collect data to enhance your experience and personalize the content and advertising you see.
Visit our Privacy Policy to learn more. By continuing to use the site, you agree to this use of cookies and data.
  • En España
  • Lista de países
  • Para 7 días
  • Temperatura del agua
  • Mapa Satelital
  • El tiempo en el mapa
  • Informadores
  • user-avatar
    Iniciar sesión

    Tiempo cada hora Agartala

    Hoy, 21 Julio, Domingo

    Tiempo Temperatura Precipitaciones Viento Presión Humedad
    00:00 +29°C° 0 mm 2 mps 752 mmHg 94%
    01:00 +28°C° 0.4 mm 2 mps 751 mmHg 94%
    02:00 +28°C° 0.4 mm 2 mps 751 mmHg 94%
    03:00 +28°C° 0.4 mm 2 mps 750 mmHg 94%
    04:00 +28°C° 0.1 mm 2 mps 751 mmHg 94%
    05:00 +28°C° 0.1 mm 2 mps 751 mmHg 94%
    06:00 +28°C° 0.1 mm 2 mps 751 mmHg 94%
    07:00 +30°C° 0 mm 3 mps 751 mmHg 88%
    08:00 +31°C° 0 mm 3 mps 751 mmHg 81%
    09:00 +34°C° 0 mm 3 mps 752 mmHg 75%
    10:00 +34°C° 0.8 mm 3 mps 752 mmHg 73%
    11:00 +35°C° 0.8 mm 3 mps 751 mmHg 71%
    12:00 +36°C° 0.8 mm 3 mps 751 mmHg 69%
    13:00 +36°C° 1.5 mm 3 mps 750 mmHg 69%
    14:00 +36°C° 1.5 mm 3 mps 750 mmHg 70%
    15:00 +36°C° 1.5 mm 3 mps 749 mmHg 71%
    16:00 +35°C° 1.9 mm 3 mps 749 mmHg 75%
    17:00 +33°C° 1.9 mm 3 mps 749 mmHg 80%
    18:00 +31°C° 1.9 mm 3 mps 749 mmHg 84%
    19:00 +31°C° 0.2 mm 3 mps 749 mmHg 86%
    20:00 +30°C° 0.2 mm 3 mps 750 mmHg 88%
    21:00 +29°C° 0.2 mm 3 mps 750 mmHg 90%
    22:00 +29°C° 0.2 mm 3 mps 750 mmHg 90%
    23:00 +29°C° 0.2 mm 3 mps 750 mmHg 91%

    Mañana, 22 Julio, Lunes

    Tiempo Temperatura Precipitaciones Viento Presión Humedad
    00:00 +29°C° 0.2 mm 3 mps 750 mmHg 91%
    01:00 +29°C° 0.5 mm 3 mps 750 mmHg 92%
    02:00 +28°C° 0.5 mm 2 mps 750 mmHg 93%
    03:00 +28°C° 0.5 mm 2 mps 750 mmHg 93%
    04:00 +28°C° 0.4 mm 2 mps 750 mmHg 94%
    05:00 +28°C° 0.4 mm 2 mps 750 mmHg 94%
    06:00 +28°C° 0.4 mm 2 mps 750 mmHg 94%
    07:00 +29°C° 0.3 mm 3 mps 750 mmHg 89%
    08:00 +31°C° 0.3 mm 3 mps 751 mmHg 84%
    09:00 +33°C° 0.3 mm 4 mps 751 mmHg 79%
    10:00 +34°C° 1 mm 4 mps 751 mmHg 77%
    11:00 +34°C° 1 mm 4 mps 751 mmHg 75%
    12:00 +35°C° 1 mm 4 mps 751 mmHg 73%
    13:00 +34°C° 2 mm 4 mps 750 mmHg 76%
    14:00 +33°C° 2 mm 4 mps 750 mmHg 79%
    15:00 +33°C° 2 mm 4 mps 749 mmHg 81%
    16:00 +32°C° 0.4 mm 4 mps 750 mmHg 83%
    17:00 +30°C° 0.4 mm 4 mps 750 mmHg 85%
    18:00 +29°C° 0.4 mm 4 mps 750 mmHg 87%
    19:00 +29°C° 0 mm 4 mps 751 mmHg 88%
    20:00 +28°C° 0 mm 4 mps 751 mmHg 89%
    21:00 +28°C° 0 mm 4 mps 752 mmHg 90%
    22:00 +28°C° 0 mm 4 mps 752 mmHg 89%
    23:00 +28°C° 0 mm 3 mps 751 mmHg 89%

    Pasado mañana, 23 Julio, Martes

    Tiempo Temperatura Precipitaciones Viento Presión Humedad
    00:00 +28°C° 0 mm 3 mps 751 mmHg 88%
    01:00 +28°C° 0 mm 3 mps 751 mmHg 88%
    02:00 +28°C° 0 mm 3 mps 751 mmHg 88%
    03:00 +28°C° 0 mm 3 mps 750 mmHg 88%
    04:00 +27°C° 0.1 mm 3 mps 751 mmHg 88%
    05:00 +27°C° 0.1 mm 3 mps 751 mmHg 88%
    06:00 +27°C° 0.1 mm 3 mps 751 mmHg 89%
    07:00 +28°C° 0.7 mm 3 mps 751 mmHg 88%
    08:00 +28°C° 0.7 mm 3 mps 752 mmHg 88%
    09:00 +29°C° 0.7 mm 3 mps 752 mmHg 87%
    10:00 +30°C° 0.6 mm 4 mps 752 mmHg 85%
    11:00 +30°C° 0.6 mm 4 mps 751 mmHg 84%
    12:00 +32°C° 0.6 mm 4 mps 751 mmHg 82%
    13:00 +32°C° 0.5 mm 4 mps 750 mmHg 80%
    14:00 +33°C° 0.5 mm 4 mps 750 mmHg 78%
    15:00 +34°C° 0.5 mm 5 mps 749 mmHg 76%
    16:00 +33°C° 0.4 mm 4 mps 749 mmHg 79%
    17:00 +32°C° 0.4 mm 4 mps 750 mmHg 82%
    18:00 +30°C° 0.4 mm 4 mps 750 mmHg 85%
    19:00 +29°C° 0.1 mm 4 mps 750 mmHg 87%
    20:00 +29°C° 0.1 mm 4 mps 751 mmHg 89%
    21:00 +28°C° 0.1 mm 4 mps 751 mmHg 91%
    22:00 +28°C° 0.1 mm 3 mps 751 mmHg 91%
    23:00 +28°C° 0.1 mm 3 mps 751 mmHg 92%

    24 Julio, Miércoles

    Tiempo Temperatura Precipitaciones Viento Presión Humedad
    00:00 +27°C° 0.1 mm 3 mps 751 mmHg 92%
    01:00 +27°C° 0.3 mm 3 mps 751 mmHg 92%
    02:00 +27°C° 0.3 mm 3 mps 750 mmHg 92%
    03:00 +27°C° 0.3 mm 3 mps 750 mmHg 92%
    04:00 +27°C° 0 mm 3 mps 750 mmHg 91%
    05:00 +27°C° 0 mm 3 mps 750 mmHg 91%
    06:00 +27°C° 0 mm 3 mps 750 mmHg 91%
    07:00 +28°C° 0.1 mm 3 mps 750 mmHg 90%
    08:00 +28°C° 0.1 mm 4 mps 751 mmHg 88%
    09:00 +29°C° 0.1 mm 4 mps 751 mmHg 86%
    10:00 +30°C° 0.8 mm 4 mps 751 mmHg 84%
    11:00 +30°C° 0.8 mm 4 mps 751 mmHg 83%
    12:00 +32°C° 0.8 mm 4 mps 750 mmHg 81%
    13:00 +32°C° 1 mm 4 mps 750 mmHg 81%
    14:00 +32°C° 1 mm 4 mps 750 mmHg 82%
    15:00 +32°C° 1 mm 4 mps 749 mmHg 82%
    16:00 +30°C° 1.3 mm 4 mps 749 mmHg 85%
    17:00 +29°C° 1.3 mm 3 mps 749 mmHg 88%
    18:00 +29°C° 1.3 mm 3 mps 749 mmHg 91%
    19:00 +28°C° 0.4 mm 3 mps 750 mmHg 92%
    20:00 +28°C° 0.4 mm 4 mps 751 mmHg 93%
    21:00 +27°C° 0.4 mm 4 mps 751 mmHg 94%
    22:00 +27°C° 0.1 mm 4 mps 751 mmHg 94%
    23:00 +27°C° 0.1 mm 4 mps 751 mmHg 95%

    25 Julio, Jueves

    Tiempo Temperatura Precipitaciones Viento Presión Humedad
    00:00 +27°C° 0.1 mm 4 mps 751 mmHg 95%
    01:00 +27°C° 0.3 mm 4 mps 751 mmHg 95%
    02:00 +27°C° 0.3 mm 3 mps 750 mmHg 96%
    03:00 +27°C° 0.3 mm 3 mps 750 mmHg 96%
    04:00 +27°C° 0.1 mm 3 mps 750 mmHg 96%
    05:00 +27°C° 0.1 mm 3 mps 751 mmHg 96%
    06:00 +26°C° 0.1 mm 3 mps 751 mmHg 96%
    07:00 +27°C° 0.2 mm 3 mps 751 mmHg 93%
    08:00 +28°C° 0.2 mm 3 mps 751 mmHg 90%
    09:00 +29°C° 0.2 mm 3 mps 751 mmHg 88%
    10:00 +30°C° 1.8 mm 3 mps 751 mmHg 84%
    11:00 +31°C° 1.8 mm 3 mps 751 mmHg 81%
    12:00 +33°C° 1.8 mm 3 mps 751 mmHg 77%
    13:00 +33°C° 2.5 mm 3 mps 750 mmHg 79%
    14:00 +33°C° 2.5 mm 3 mps 749 mmHg 80%
    15:00 +33°C° 2.5 mm 4 mps 749 mmHg 82%
    16:00 +32°C° 0.9 mm 4 mps 748 mmHg 84%
    17:00 +30°C° 0.9 mm 3 mps 748 mmHg 86%
    18:00 +30°C° 0.9 mm 3 mps 748 mmHg 89%
    19:00 +29°C° 0.2 mm 3 mps 749 mmHg 90%
    20:00 +28°C° 0.2 mm 3 mps 750 mmHg 92%
    21:00 +28°C° 0.2 mm 3 mps 750 mmHg 93%
    22:00 +28°C° 0 mm 3 mps 750 mmHg 94%
    23:00 +27°C° 0 mm 3 mps 750 mmHg 94%

    26 Julio, Viernes

    Tiempo Temperatura Precipitaciones Viento Presión Humedad
    00:00 +27°C° 0 mm 3 mps 750 mmHg 95%
    01:00 +27°C° 0 mm 3 mps 750 mmHg 95%
    02:00 +27°C° 0 mm 3 mps 750 mmHg 95%
    03:00 +27°C° 0 mm 3 mps 749 mmHg 95%
    04:00 +27°C° 0 mm 3 mps 750 mmHg 95%
    05:00 +27°C° 0 mm 3 mps 750 mmHg 95%
    06:00 +27°C° 0 mm 3 mps 750 mmHg 95%
    07:00 +28°C° 0.1 mm 3 mps 750 mmHg 90%
    08:00 +30°C° 0.1 mm 3 mps 750 mmHg 85%
    09:00 +31°C° 0.1 mm 3 mps 750 mmHg 80%
    10:00 +33°C° 0.6 mm 3 mps 750 mmHg 77%
    11:00 +34°C° 0.6 mm 3 mps 749 mmHg 74%
    12:00 +35°C° 0.6 mm 3 mps 749 mmHg 71%
    13:00 +35°C° 0.8 mm 4 mps 748 mmHg 72%
    14:00 +34°C° 0.8 mm 4 mps 748 mmHg 74%
    15:00 +34°C° 0.8 mm 5 mps 747 mmHg 75%
    16:00 +33°C° 0.7 mm 5 mps 748 mmHg 79%
    17:00 +32°C° 0.7 mm 4 mps 748 mmHg 83%
    18:00 +30°C° 0.7 mm 4 mps 748 mmHg 87%
    19:00 +29°C° 0 mm 4 mps 749 mmHg 88%
    20:00 +29°C° 0 mm 4 mps 750 mmHg 89%
    21:00 +28°C° 0 mm 5 mps 751 mmHg 90%
    22:00 +28°C° 0.1 mm 4 mps 751 mmHg 90%
    23:00 +28°C° 0.1 mm 4 mps 751 mmHg 91%
    Mostrar más